Погода в Курджипской

Россия / Республика Адыгея     44°27′23″N   40°03′00″E
темп.,
°C
ветер,
м/с
пор.,
м/с
влажн.,
%
обл.,
%
осадки,
мм/ч
давл.,
гПа
погр.,
м
13 апреля, вт
вт1300:00+7ююз2298100 2.1 102368
03:00+7з0199100 2.5 102321
06:00+6ссз1299100 0.5 1022139
09:00+7ссв1398100 0.6 1023233
12:00+8всв2392100 0.1 1023479
15:00+9всв2388100 0.1 1022599
18:00+9всв2593100 0.2 1021293
21:00+8в1296100 0.2 102171
14 апреля, ср
ср1400:00+7з0098100 0.1 102011
03:00+7з1199100 3.8 102050
06:00+7зюз1399100 1.9 1020186
09:00+10зюз138560 1.9 1019579
12:00+14сз336192 0.1 10171370
15:00+15ссз336389 0.2 10171285
18:00+12св2381100 0.2 1017147
21:00+8юв11919 0.3 101810
15 апреля, чт
чт1500:00+7ююв119536 0.0 101814
03:00+6ююв228991 0.0 101824
06:00+5ююв22795 0.0 101818
09:00+14всв014926 0.0 1017347
12:00+18ссз223997 0.0 10161671
15:00+15ссз3462100 0.1 1016503
18:00+14св117463 0.4 101713
21:00+10ююз1186100 0.5 101811
16 апреля, пт
пт1600:00+8вюв1192100 0.1 101711
03:00+7ююв009479 0.1 101810
06:00+7юв219487 0.0 101822
09:00+13всв127077 0.0 1017396
12:00+14ссз4376100 0.1 1018932
15:00+9сз3596100 3.0 1020438
18:00+9в119275 0.3 1020296
21:00+8вюв119598 0.3 102145
17 апреля, сб
сб1700:00+8зсз1196100 0.0 102146
03:00+8сз2897100 1.2 1022450
06:00+7с129798 0.1 1023277
09:00+9всв018399 0.0 1022373
12:00+14всв1161100 0.0 10211241
15:00+12всв2475100 0.1 1021499
18:00+11в3781100 0.0 1020475
21:00+10в2485100 0.0 1020151